Temperature
23 22 21 21 23 26 27 29 29 29 29 29 29 28 27 26 25 23 22 22 21 20 20 20 20 20 20 20 20 19 19 19 19 19 19 19 19 19 19 19 19 19 19 19 19 18 18 18 18
22 22 22 23 25 27 28 29 30 30 30 29 29 28 27 25 24 23 22 22 21 20 20 20 20 20 20 20 20 20 19 19 19 19 19 19 19 19 19 19 19 19 19 19 18 18 18 18 18
23 23 24 26 27 28 28 30 30 30 30 30 29 27 26 25 24 23 22 22 21 20 20 20 20 20 20 20 20 20 19 20 19 19 19 19 19 19 19 19 19 19 19 18 18 18 18 18 18
23 24 26 27 28 29 30 30 31 31 30 30 29 27 25 24 23 23 22 22 21 20 21 21 20 20 20 20 20 20 20 19 19 19 19 19 19 19 19 19 19 19 19 19 19 19 18 18 18
24 26 27 28 29 30 31 32 31 31 30 29 28 26 24 24 23 23 23 22 22 21 21 21 21 20 20 20 20 20 20 19 19 19 19 19 19 19 19 19 19 19 19 19 19 19 19 18 18
27 28 28 29 29 31 32 32 31 31 30 29 28 26 24 24 23 23 23 23 22 21 21 21 21 20 20 20 20 20 20 20 19 19 19 19 19 19 19 19 19 19 19 19 19 19 18 18 18
28 28 29 30 30 30 32 32 31 31 30 29 28 27 25 24 23 23 23 23 22 21 21 21 21 20 20 20 20 20 20 20 19 19 19 19 19 19 19 19 19 19 19 19 19 19 18 18 18
30 30 30 30 30 31 32 32 31 30 30 29 28 27 25 24 24 23 23 23 22 21 21 21 20 20 20 20 20 20 20 20 19 19 19 19 19 19 19 19 19 19 19 19 19 19 18 18 18
31 30 30 30 31 31 32 32 31 30 29 29 28 27 25 24 24 23 23 23 22 22 21 21 21 20 20 20 20 20 20 20 19 19 19 19 19 19 19 19 19 19 19 19 19 19 19 19 18
31 30 30 32 32 32 33 32 31 31 30 29 27 26 25 25 24 24 23 23 22 22 22 21 21 21 20 20 20 20 20 20 19 19 19 19 19 19 19 19 19 19 19 19 19 19 19 19 18
32 31 32 32 32 32 33 32 32 31 30 29 28 27 26 25 25 24 24 23 23 22 22 21 21 21 21 20 20 20 20 20 19 19 19 19 19 19 19 19 19 19 19 19 19 19 19 18 18
33 33 33 33 33 33 33 32 32 31 30 29 28 27 26 26 25 25 24 23 23 22 22 21 21 21 21 20 20 20 20 20 19 19 19 19 19 19 19 19 19 19 19 19 18 18 18 18 18
33 34 33 33 33 33 32 32 31 30 30 29 28 27 27 26 26 25 24 23 23 22 22 21 21 21 21 20 20 20 20 20 20 19 19 19 19 19 19 19 19 19 19 19 18 18 18 18 18
34 34 34 34 33 33 33 32 31 31 30 29 28 28 27 27 26 25 24 24 23 22 22 21 21 21 21 20 20 20 20 20 20 19 19 19 19 19 19 18 19 19 19 18 18 18 18 18 18
34 34 33 34 34 34 33 31 32 31 30 30 29 28 28 27 26 25 24 24 23 22 22 21 21 20 21 20 20 20 20 20 20 19 19 19 19 19 19 19 19 19 18 18 18 18 18 18 18
33 32 31 33 34 34 32 30 31 31 30 30 29 28 28 27 26 25 24 24 23 22 21 21 21 20 20 20 20 20 20 20 20 19 19 19 19 19 19 19 19 19 19 19 19 19 19 19 19
32 31 31 33 34 34 33 31 32 31 31 30 30 29 28 27 26 25 25 24 23 22 21 21 21 21 20 20 20 20 20 20 20 20 19 19 19 19 19 19 19 19 19 19 18 18 18 18 19
31 32 32 33 34 34 33 32 32 32 32 31 30 29 28 27 26 26 25 24 23 22 21 21 21 20 20 20 20 20 20 20 20 20 19 19 19 19 19 19 19 19 19 19 18 18 18 18 19
33 33 32 33 34 34 33 32 32 32 32 31 31 30 29 28 27 26 25 24 23 22 21 21 21 20 20 20 20 20 20 20 20 20 19 19 19 19 19 19 19 19 18 18 18 18 18 18 19
33 33 33 33 35 34 33 33 32 33 32 31 31 30 29 28 27 26 25 24 23 22 21 21 21 20 20 20 20 20 20 20 20 20 19 19 19 19 19 19 19 19 18 18 18 18 18 18 18
33 33 33 33 34 34 33 32 32 32 31 31 31 30 29 28 27 26 25 24 23 22 21 21 21 20 20 20 20 20 20 20 20 19 19 19 19 19 19 19 19 19 18 18 18 18 18 18 18
33 34 34 34 33 32 32 31 31 31 31 31 30 30 30 29 28 26 25 24 23 22 22 21 21 21 20 20 20 20 20 19 19 19 19 19 19 19 19 19 18 18 18 18 18 18 18 18 18
33 34 34 34 33 32 32 31 31 32 30 31 31 31 30 29 28 27 25 24 23 23 22 21 21 20 20 20 20 20 20 19 19 19 19 19 19 19 19 19 18 18 18 18 18 18 18 18 18
34 34 33 33 32 30 31 31 30 31 32 32 31 31 30 29 28 27 25 24 23 23 22 21 21 21 20 20 20 20 19 19 19 19 19 19 19 19 19 18 18 18 18 18 18 18 18 18 18
34 32 30 30 30 29 31 31 31 32 33 33 32 31 30 29 28 27 26 24 24 23 22 21 21 20 20 20 20 19 19 19 19 19 19 19 19 19 19 18 18 18 18 18 18 17 17 17 17
33 32 30 29 29 30 30 31 32 33 33 33 32 31 30 29 28 27 26 25 24 23 22 21 21 20 20 20 20 19 19 19 19 19 19 19 18 19 18 18 18 18 18 18 17 17 17 17 17
32 32 33 31 31 30 30 30 31 33 33 33 32 31 30 29 28 27 26 25 24 23 22 22 21 20 20 20 20 19 19 19 19 19 19 19 18 18 18 18 18 18 18 17 17 17 17 17 17
34 33 33 31 29 29 29 30 30 31 32 32 32 31 30 29 28 27 26 25 24 23 23 22 21 21 20 20 19 19 19 19 19 19 19 19 19 18 18 18 18 18 17 17 17 17 17 17 17
33 32 32 32 31 29 28 29 32 31 32 32 31 30 29 29 28 27 26 25 24 23 23 22 21 20 20 20 19 19 19 19 19 19 18 18 18 18 18 17 17 17 17 17 17 17 17 17 17
33 33 32 31 30 30 29 30 33 32 32 32 31 30 29 28 28 27 26 25 24 24 23 22 21 20 20 20 19 19 19 19 18 18 18 18 18 18 18 17 17 17 17 17 17 17 17 17 16
Wind_Speed
10 11 9 5 4 1 6 9 11 11 11 11 12 11 14 14 10 7 4 7 11 14 14 14 12 12 11 10 10 10 11 12 12 11 10 10 10 10 10 10 10 10 10 10 9 9 8 8 8
9 10 6 4 2 4 8 9 11 11 9 9 12 14 15 13 12 8 6 8 12 14 13 13 13 12 11 11 12 12 12 13 12 12 11 10 10 10 10 10 10 9 9 9 8 8 8 8 8
10 11 5 3 3 7 8 9 10 10 8 9 12 13 11 9 10 7 7 9 13 14 14 14 13 12 12 13 13 13 14 13 12 12 11 10 10 9 9 9 9 9 9 8 7 7 7 7 8
6 6 4 0 7 8 7 7 8 10 10 10 11 10 11 10 8 9 9 11 13 14 14 14 13 12 12 13 13 14 14 13 12 11 10 10 9 8 8 8 9 9 9 8 7 7 7 7 7
8 4 3 4 7 8 6 7 9 10 11 13 14 13 12 11 11 10 9 11 13 14 14 14 13 12 12 12 13 13 13 12 11 11 10 8 8 8 7 7 8 8 8 7 7 7 7 6 6
5 3 1 6 8 7 8 9 10 11 11 12 13 12 10 10 10 10 10 11 12 13 14 14 14 12 12 12 12 12 12 11 10 10 9 7 7 7 6 6 7 7 7 7 6 6 6 7 7
5 2 2 7 6 6 9 10 10 11 10 10 10 11 10 10 10 10 10 11 11 12 13 11 12 11 11 12 12 11 11 10 10 9 7 6 7 7 7 7 7 7 7 7 6 6 6 6 7
5 2 3 6 6 8 9 11 11 12 10 8 8 8 9 10 10 10 10 11 10 10 10 11 10 10 11 11 11 11 11 9 9 7 6 5 6 7 7 7 7 7 7 7 7 6 6 6 7
5 2 3 5 6 6 8 10 10 10 11 11 12 12 13 13 11 11 10 10 9 9 8 9 9 8 9 10 11 10 10 9 8 6 6 5 5 6 7 7 8 8 8 8 8 7 7 7 7
2 1 4 5 5 6 8 8 8 8 10 11 12 13 14 12 10 10 10 10 9 8 9 7 8 7 7 7 8 8 7 8 6 5 4 4 4 4 6 9 9 8 7 8 8 7 6 6 6
0 2 4 3 4 4 6 6 7 8 8 10 11 11 12 12 9 9 9 10 9 8 8 8 7 6 5 5 5 4 5 6 6 5 3 2 2 3 5 6 6 6 6 5 6 6 5 4 4
1 2 2 3 4 5 6 6 9 9 9 10 10 11 11 11 10 9 9 9 9 9 8 7 7 6 5 4 3 4 4 4 4 4 3 2 1 2 2 1 3 4 3 3 3 2 2 1 2
1 2 3 3 4 5 6 6 8 10 10 10 10 10 10 10 11 10 10 9 9 9 8 7 7 6 4 3 1 3 4 4 4 4 3 1 1 2 2 1 1 1 2 2 1 2 1 1 1
2 1 2 3 4 4 5 6 6 9 9 10 9 9 9 9 11 11 10 9 9 8 8 7 7 7 5 3 1 1 3 3 4 3 4 2 2 2 2 1 1 1 0 1 1 1 1 1 1
4 2 1 3 5 5 6 3 6 10 10 10 9 9 9 9 11 10 10 9 9 9 7 6 7 7 5 3 1 1 2 4 3 3 4 3 3 3 2 2 1 1 1 1 1 1 1 2 2
7 3 4 6 5 5 4 3 6 10 9 9 10 9 9 8 9 10 10 9 9 9 7 4 5 7 5 3 1 1 2 3 3 3 4 3 3 3 2 2 1 2 2 1 1 1 1 1 1
8 5 6 5 5 5 5 4 8 11 10 8 10 11 11 10 9 9 10 9 10 9 8 5 4 5 5 3 2 2 2 2 2 3 3 4 3 2 2 2 1 1 1 0 0 1 1 1 1
6 4 5 4 4 4 4 5 6 9 10 9 9 10 11 11 10 10 10 10 10 9 8 6 5 4 4 3 2 1 1 2 2 2 2 3 3 2 1 2 1 1 1 1 1 0 1 2 2
8 6 4 4 4 3 3 5 6 7 8 8 10 10 11 11 12 11 10 11 11 9 8 6 5 5 3 2 2 3 2 2 2 3 3 3 2 2 1 1 1 1 1 1 0 1 2 2 1
10 7 6 4 3 3 3 4 7 8 8 7 9 11 11 12 12 11 10 10 11 10 8 7 6 5 4 3 2 2 2 2 3 2 3 3 2 1 2 2 1 1 1 1 1 0 1 2 1
9 8 8 6 4 5 6 6 6 6 6 6 8 9 10 10 13 13 11 10 10 9 9 7 6 5 4 3 3 2 2 1 2 3 3 2 2 1 1 1 0 0 1 1 1 1 1 2 2
9 8 8 8 8 6 7 5 7 9 9 8 8 10 12 11 12 13 12 10 10 10 9 7 6 5 4 3 3 3 3 2 2 1 2 2 2 1 1 1 0 1 1 1 1 1 1 1 2
9 10 10 10 10 8 8 7 5 9 10 11 10 11 13 13 13 13 13 11 10 10 10 8 7 5 4 4 3 2 2 2 1 2 2 2 1 1 1 1 1 0 0 1 1 1 2 1 2
10 10 10 9 8 9 9 8 4 6 9 11 12 11 11 12 13 13 12 11 10 10 10 10 8 6 5 5 4 3 2 2 2 1 1 2 1 1 1 2 1 1 1 1 1 1 1 1 2
11 9 7 7 6 8 8 7 5 6 6 7 10 11 11 12 12 13 13 12 11 10 10 10 9 7 6 5 4 3 3 2 2 1 1 1 1 1 1 2 1 0 0 0 1 0 1 2 2
10 10 8 7 7 6 5 5 3 5 6 5 8 10 10 12 12 13 13 12 11 11 10 10 10 8 7 6 4 3 2 2 1 1 1 0 1 1 2 2 1 0 1 1 1 1 1 1 2
10 10 11 10 11 9 5 3 4 6 7 7 8 10 10 11 12 12 12 12 11 11 10 10 10 9 8 7 5 4 3 2 1 2 1 1 1 1 2 2 1 1 0 1 0 1 2 2 2
11 11 8 8 7 8 7 6 4 7 7 7 8 8 9 10 11 11 11 10 10 10 10 9 10 8 7 7 6 5 4 3 2 2 2 2 1 2 1 0 1 0 0 1 1 1 1 1 2
11 11 9 8 8 7 7 4 3 7 8 8 8 7 8 9 9 10 11 10 11 10 10 9 9 8 7 6 5 4 4 3 3 2 2 2 1 1 1 1 0 0 1 0 0 1 1 1 2
12 12 12 8 8 8 7 5 1 5 6 8 9 8 7 7 8 9 10 10 10 10 10 9 8 8 7 6 6 4 4 3 3 2 2 2 2 1 1 0 1 1 0 1 1 2 2 1 2
Wind_Direction
198 210 215 237 250 225 52 54 54 53 54 52 56 64 64 51 56 81 91 91 97 102 108 106 101 99 95 95 98 104 112 112 109 107 108 109 111 115 118 122 122 122 123 124 124 127 130 132 136
222 223 228 244 273 62 56 52 61 63 64 66 71 70 70 64 73 94 95 96 103 107 109 106 104 98 93 94 101 104 111 113 110 107 109 105 109 112 117 120 123 124 125 128 129 133 137 141 142
245 245 254 244 48 59 61 54 63 73 72 73 76 68 66 71 74 92 105 109 105 105 105 109 108 102 97 97 103 107 110 110 110 110 109 108 108 111 116 122 127 130 134 139 142 142 144 148 149
239 239 236 305 58 66 60 64 66 75 75 74 77 75 73 76 89 103 114 114 107 107 107 114 112 107 104 103 103 106 109 110 111 113 113 111 112 116 121 128 135 141 145 146 148 150 155 159 162
239 258 251 76 68 69 69 75 82 76 70 72 79 87 84 87 100 109 111 108 109 111 113 120 118 113 110 109 109 110 112 113 114 114 113 114 118 119 124 133 138 144 149 153 157 162 167 170 182
263 264 339 75 69 59 71 67 75 78 87 90 94 94 94 103 106 106 104 104 107 112 117 123 123 119 116 115 114 115 116 118 117 116 121 123 124 125 127 133 140 146 151 154 159 169 177 188 201
251 285 38 71 75 59 71 74 71 74 72 80 91 100 107 108 109 107 107 106 104 111 118 126 133 133 131 125 122 123 121 120 120 118 124 132 133 137 135 135 137 142 152 158 165 172 188 199 209
269 301 47 76 74 70 72 78 77 77 73 80 93 100 120 125 124 119 115 111 110 113 119 127 129 132 138 136 134 133 132 132 132 129 139 143 140 144 144 141 142 144 152 161 170 177 187 198 212
264 313 48 71 77 81 76 84 85 90 87 72 74 99 120 128 129 127 123 117 113 112 117 120 125 127 136 137 136 144 146 146 150 149 165 163 160 155 150 136 144 151 159 168 174 177 187 200 213
257 28 60 50 73 79 78 83 95 99 95 91 93 104 118 125 132 133 128 124 124 124 121 118 119 121 125 126 137 153 150 145 149 139 155 175 159 138 135 142 150 154 169 177 182 188 195 206 206
182 93 86 76 81 79 85 84 89 87 92 99 110 119 130 134 135 128 126 128 128 127 119 123 124 120 115 119 130 140 142 146 148 132 139 132 131 127 129 147 156 170 172 174 177 193 204 198 191
181 120 108 103 103 94 85 86 84 82 96 109 120 128 132 135 131 129 127 123 124 120 118 118 111 101 91 96 126 139 134 138 140 138 133 141 117 85 94 118 155 171 168 166 171 183 209 182 200
226 131 117 110 106 102 100 87 92 101 106 112 124 130 135 134 131 127 121 119 120 120 118 113 109 101 91 83 87 125 126 127 120 127 133 129 124 110 99 90 131 166 152 150 146 178 189 172 227
268 162 129 139 127 147 128 120 118 118 124 130 135 137 136 130 128 129 131 128 126 124 121 124 123 115 110 113 101 111 132 126 119 130 136 162 145 108 104 117 124 46 73 137 165 186 178 205 228
256 195 255 224 186 161 117 113 141 140 144 142 139 135 132 133 131 136 136 135 129 125 123 127 129 122 127 140 162 133 128 122 128 134 132 139 135 126 127 135 129 120 199 164 176 227 208 212 224
259 233 224 249 215 159 145 156 164 147 148 147 142 141 140 135 137 137 139 137 129 127 124 130 134 131 134 132 120 99 99 118 135 133 127 120 119 134 145 144 142 176 184 181 186 213 253 251 248
256 239 221 236 219 173 163 160 169 158 157 160 153 151 148 146 144 141 143 140 130 129 129 131 114 121 129 132 130 122 99 107 116 115 125 131 131 136 149 124 134 180 159 174 255 55 322 287 289
263 248 237 241 219 188 170 160 175 166 167 167 160 155 154 155 151 149 149 144 138 133 135 138 133 122 134 141 143 142 114 126 123 116 108 117 133 141 128 139 165 162 92 64 52 336 297 276 269
253 257 251 245 239 218 205 168 174 181 174 170 164 161 161 160 153 151 153 148 143 140 141 143 147 139 142 149 167 164 164 166 143 127 115 117 124 140 146 117 159 147 133 151 281 304 290 269 259
257 262 259 237 231 251 241 195 185 181 176 175 175 168 165 159 153 153 156 151 150 151 151 151 152 147 147 154 169 169 156 160 127 113 118 126 150 175 173 161 200 168 151 175 231 307 297 303 307
256 257 260 261 252 257 262 226 181 177 175 185 191 170 165 167 159 157 157 153 152 153 156 153 145 147 153 170 166 152 138 138 132 148 137 145 156 149 103 140 279 274 187 171 214 219 249 296 311
267 269 266 262 253 252 247 247 184 184 174 188 201 180 167 169 164 158 157 157 156 154 149 137 139 143 152 166 163 167 157 157 160 139 126 150 156 151 142 148 136 336 9 28 296 83 301 291 297
269 278 273 269 264 264 257 261 201 179 177 185 196 191 169 167 161 158 158 158 160 156 150 144 137 142 149 156 160 166 152 145 122 112 121 150 151 159 165 125 139 115 32 347 2 8 332 326 307
265 268 268 264 263 258 251 252 225 199 189 183 180 183 166 161 157 154 152 153 156 154 152 150 145 150 154 156 152 147 143 136 127 135 164 198 168 165 150 125 116 103 46 358 347 313 300 304 316
252 260 267 264 257 253 246 241 218 178 178 176 165 162 158 155 154 153 151 153 157 160 157 151 150 155 159 162 159 157 164 169 184 194 181 227 158 123 91 102 105 92 193 263 290 343 319 304 300
249 250 255 267 266 262 236 241 180 142 138 141 141 146 153 159 158 157 156 154 157 158 157 154 154 158 164 163 157 156 175 194 166 136 143 310 64 105 103 103 119 203 254 283 16 336 280 297 301
255 256 264 267 276 278 255 206 165 145 146 149 141 144 158 163 157 154 154 155 158 160 160 158 154 159 164 166 162 162 169 162 137 146 185 120 88 132 116 133 148 196 297 333 0 300 301 315 321
253 262 273 266 269 277 277 251 203 161 156 155 145 147 153 158 154 149 150 150 151 158 157 157 155 159 160 165 174 167 165 167 167 144 100 68 58 47 70 142 136 120 290 297 305 277 290 308 296
251 251 259 274 279 275 271 275 165 154 157 154 143 143 148 153 153 153 151 151 150 149 150 151 150 156 160 161 159 152 158 166 163 148 142 127 105 114 96 44 41 240 261 267 321 293 305 308 312
255 257 255 253 258 262 268 274 163 145 136 136 130 127 128 146 147 147 149 149 153 156 155 151 150 155 154 152 152 156 154 161 172 162 148 141 148 159 137 165 275 269 351 353 316 314 338 339 327
Height
1484 1484 1485 1488 1488 1484 1481 1472 1467 1467 1468 1469 1470 1471 1476 1479 1484 1496 1495 1493 1492 1491 1491 1491 1491 1491 1489 1488 1487 1488 1492 1496 1499 1502 1504 1506 1508 1509 1511 1513 1514 1516 1517 1519 1520 1522 1523 1525 1526
1484 1486 1488 1488 1485 1487 1483 1470 1469 1469 1470 1471 1472 1475 1478 1484 1488 1492 1494 1495 1494 1493 1494 1494 1493 1492 1490 1487 1486 1488 1492 1497 1500 1503 1506 1508 1509 1511 1512 1514 1515 1517 1518 1520 1521 1523 1524 1525 1527
1485 1487 1488 1483 1480 1484 1481 1470 1468 1469 1470 1471 1474 1478 1484 1489 1492 1494 1495 1496 1497 1496 1496 1496 1495 1494 1493 1490 1489 1491 1495 1499 1503 1505 1507 1509 1510 1512 1513 1515 1516 1518 1519 1520 1522 1523 1524 1526 1527
1486 1487 1485 1480 1480 1474 1471 1468 1467 1469 1471 1472 1475 1482 1488 1492 1494 1495 1496 1497 1498 1498 1498 1498 1498 1497 1497 1496 1496 1497 1499 1503 1505 1507 1509 1510 1512 1513 1514 1516 1517 1518 1520 1521 1522 1523 1525 1526 1528
1487 1485 1482 1480 1476 1470 1467 1466 1467 1470 1472 1475 1479 1486 1492 1495 1496 1497 1498 1499 1499 1500 1500 1500 1500 1500 1500 1501 1501 1502 1504 1506 1507 1509 1510 1512 1513 1514 1515 1516 1517 1518 1520 1521 1522 1524 1525 1527 1528
1485 1479 1483 1484 1477 1470 1467 1467 1468 1471 1475 1478 1481 1487 1494 1497 1497 1498 1499 1500 1501 1502 1502 1503 1503 1503 1503 1504 1505 1506 1507 1508 1510 1511 1512 1513 1514 1514 1515 1516 1517 1519 1520 1521 1523 1524 1525 1527 1528
1483 1480 1480 1478 1478 1474 1468 1469 1471 1473 1476 1479 1482 1487 1494 1497 1498 1499 1500 1502 1503 1504 1504 1505 1506 1506 1507 1507 1508 1509 1510 1511 1512 1512 1513 1513 1514 1514 1515 1516 1517 1519 1520 1521 1523 1524 1525 1526 1527
1477 1476 1478 1477 1478 1475 1469 1471 1473 1476 1479 1481 1483 1487 1494 1498 1499 1500 1501 1503 1504 1505 1506 1507 1508 1508 1509 1510 1511 1512 1512 1513 1514 1514 1515 1514 1514 1514 1515 1516 1517 1519 1520 1522 1523 1524 1525 1526 1527
1476 1478 1481 1477 1475 1473 1470 1472 1476 1478 1480 1483 1485 1488 1493 1497 1499 1500 1502 1504 1505 1507 1508 1509 1510 1511 1511 1512 1513 1514 1515 1515 1516 1516 1516 1516 1515 1515 1516 1517 1518 1520 1521 1522 1523 1524 1525 1526 1528
1474 1479 1478 1470 1469 1470 1471 1473 1475 1477 1481 1485 1489 1492 1494 1497 1499 1501 1502 1504 1506 1508 1509 1510 1511 1512 1513 1514 1515 1515 1516 1517 1518 1517 1517 1517 1517 1517 1518 1519 1520 1521 1522 1523 1524 1524 1525 1527 1528
1471 1473 1471 1471 1470 1471 1471 1473 1475 1478 1481 1486 1489 1492 1495 1497 1499 1501 1503 1505 1507 1508 1510 1511 1512 1513 1514 1515 1516 1517 1518 1518 1519 1519 1519 1519 1519 1520 1520 1521 1521 1522 1523 1523 1524 1525 1526 1526 1528
1469 1469 1469 1470 1471 1471 1472 1474 1476 1479 1484 1487 1490 1492 1494 1497 1499 1501 1503 1505 1507 1509 1511 1512 1513 1514 1515 1516 1517 1518 1519 1519 1520 1520 1520 1521 1521 1522 1522 1522 1523 1523 1524 1524 1525 1526 1526 1527 1528
1468 1467 1468 1469 1470 1471 1473 1475 1478 1481 1484 1488 1490 1492 1494 1496 1499 1501 1504 1506 1508 1510 1511 1512 1513 1514 1515 1516 1517 1519 1519 1520 1521 1521 1521 1522 1523 1523 1523 1523 1524 1525 1525 1526 1526 1526 1527 1527 1528
1467 1467 1468 1468 1469 1470 1472 1475 1478 1481 1484 1488 1490 1492 1494 1496 1499 1502 1504 1506 1508 1510 1512 1513 1514 1514 1515 1516 1518 1519 1520 1520 1521 1521 1522 1523 1523 1524 1524 1525 1525 1526 1526 1527 1527 1527 1527 1528 1528
1467 1467 1469 1467 1467 1468 1471 1477 1476 1480 1483 1486 1489 1492 1494 1497 1499 1502 1504 1506 1508 1510 1512 1513 1514 1515 1516 1517 1518 1519 1520 1521 1521 1522 1523 1523 1524 1524 1525 1525 1526 1526 1527 1527 1527 1527 1528 1528 1529
1468 1472 1479 1468 1464 1466 1474 1486 1477 1479 1482 1484 1487 1491 1494 1497 1499 1502 1504 1507 1508 1510 1512 1513 1515 1515 1516 1517 1518 1519 1520 1521 1522 1522 1523 1523 1524 1524 1525 1525 1526 1526 1527 1527 1528 1527 1528 1528 1528
1473 1480 1479 1470 1461 1462 1469 1478 1474 1476 1480 1483 1486 1489 1493 1497 1499 1502 1504 1506 1508 1510 1511 1513 1515 1515 1516 1517 1518 1519 1520 1521 1522 1522 1523 1523 1524 1524 1525 1525 1526 1526 1527 1527 1528 1528 1528 1528 1528
1480 1478 1475 1471 1460 1460 1466 1471 1471 1473 1476 1480 1484 1487 1491 1495 1498 1501 1504 1506 1508 1509 1511 1512 1514 1515 1516 1517 1518 1519 1520 1521 1522 1522 1523 1523 1524 1524 1525 1525 1526 1526 1526 1527 1527 1527 1527 1527 1527
1466 1470 1473 1468 1457 1460 1465 1468 1469 1470 1474 1477 1481 1485 1489 1493 1497 1500 1503 1505 1507 1509 1510 1511 1513 1514 1515 1516 1517 1518 1519 1521 1521 1522 1522 1522 1523 1524 1525 1525 1525 1525 1526 1526 1526 1526 1526 1527 1527
1463 1469 1469 1463 1456 1460 1464 1466 1466 1467 1471 1476 1478 1482 1486 1491 1495 1498 1502 1504 1506 1508 1509 1510 1512 1513 1514 1515 1516 1517 1519 1520 1521 1522 1522 1522 1523 1524 1525 1525 1525 1525 1525 1525 1526 1525 1525 1526 1526
1463 1467 1467 1465 1460 1459 1465 1470 1467 1468 1470 1475 1477 1480 1484 1488 1492 1496 1500 1503 1505 1507 1508 1510 1511 1512 1513 1514 1516 1517 1518 1520 1521 1522 1522 1522 1523 1524 1524 1524 1524 1525 1525 1525 1525 1525 1525 1525 1526
1467 1456 1457 1459 1467 1472 1469 1484 1471 1466 1468 1471 1475 1477 1481 1486 1490 1494 1498 1501 1504 1506 1507 1508 1510 1511 1512 1514 1515 1517 1518 1519 1520 1521 1522 1522 1523 1523 1523 1523 1523 1524 1524 1524 1524 1524 1524 1524 1525
1460 1454 1455 1457 1464 1471 1469 1478 1472 1463 1470 1469 1471 1474 1477 1482 1486 1491 1495 1499 1502 1504 1506 1507 1509 1510 1512 1513 1515 1516 1518 1519 1520 1521 1521 1522 1522 1522 1522 1522 1523 1523 1523 1523 1523 1523 1523 1523 1524
1454 1455 1456 1458 1465 1486 1475 1479 1478 1464 1463 1463 1466 1470 1475 1480 1484 1489 1493 1497 1500 1503 1505 1506 1508 1509 1511 1513 1514 1515 1517 1518 1519 1520 1521 1521 1522 1522 1522 1522 1522 1522 1522 1522 1522 1522 1522 1522 1523
1455 1466 1484 1489 1490 1488 1467 1472 1470 1455 1453 1456 1461 1467 1472 1478 1483 1488 1492 1495 1498 1501 1504 1505 1507 1508 1510 1512 1513 1515 1516 1518 1519 1519 1520 1521 1521 1521 1521 1521 1521 1521 1521 1521 1521 1521 1521 1521 1521
1456 1463 1486 1499 1496 1484 1470 1473 1461 1449 1452 1456 1460 1465 1471 1476 1481 1486 1490 1494 1497 1500 1502 1504 1505 1507 1509 1511 1512 1514 1515 1517 1518 1519 1519 1520 1520 1520 1520 1520 1520 1520 1520 1520 1520 1520 1520 1520 1520
1459 1459 1455 1470 1475 1484 1478 1467 1457 1450 1453 1456 1460 1465 1471 1475 1479 1484 1488 1492 1496 1498 1501 1503 1505 1506 1508 1510 1512 1513 1514 1515 1517 1517 1518 1519 1519 1520 1519 1519 1519 1519 1519 1519 1519 1518 1519 1519 1518
1449 1452 1458 1469 1486 1494 1486 1476 1468 1458 1457 1457 1460 1465 1470 1474 1478 1483 1487 1491 1494 1497 1500 1502 1504 1505 1507 1509 1511 1512 1513 1514 1515 1516 1517 1517 1518 1518 1518 1518 1518 1518 1518 1518 1517 1517 1517 1517 1517
1454 1456 1459 1462 1466 1485 1496 1482 1450 1453 1453 1456 1460 1465 1470 1474 1478 1482 1486 1490 1493 1496 1499 1501 1503 1505 1507 1508 1510 1511 1512 1513 1514 1515 1516 1516 1517 1517 1517 1517 1517 1517 1517 1516 1516 1516 1516 1515 1515
1447 1450 1454 1469 1473 1470 1480 1477 1445 1449 1451 1455 1460 1465 1470 1474 1477 1481 1485 1489 1492 1495 1498 1500 1502 1504 1506 1507 1508 1510 1511 1512 1513 1513 1514 1515 1515 1515 1515 1515 1515 1516 1515 1515 1515 1514 1514 1514 1513